ORBCOMM FM 22

Satellite information

Favourite Embed

Satellite Type and Status

PAYLOADIN ORBIT

Key statistics

Satellite ORBCOMM FM 22 at a glance.

Uptime

9782

Days in orbit

Revolutions

≈ 14.4

Per day

Orbit

LEO

Low Earth Orbit

Inclination

45.0

Latest

Satellite identification and parameters

Extended collection of information and parameters for ORBCOMM FM 22.

Object identification

Identified? True

Debris? False

Object name: ORBCOMM FM 22

International designator: 1998-053B

Object number (NORAD): 25476

Object ID (CCSDS): 25476

Country: ORBITAL TELECOMMUNICATIONS SATELLITE (GLOBALSTAR) (ORB)

Current information (Y/N): Y

RCS size: MEDIUM

Orbital parameters

Period: 100.11 minutes

Inclination: 45.0057 deg

SMA: 7141.869 km

Apoapsis: 767.694 km

Periapsis: 759.774 km

RAAN: 182.9222 deg

Eccentricy: 0.0005545

Argument of periapsis: 299.7681 deg

Mean anomaly: 60.2616 deg

Mean motion: 14.38417405 rev/day

Mean motion (dot): 0.00000578 rev/day2

B* drag term: 0.00023392 1/REarth

Two-line elements (TLE)

Creation date: July 4, 2025, 6:39 p.m.

Reference frame: TEME

Reference center: EARTH

Epoch: July 4, 2025, 8:26 a.m. UTC

TLE line 0: 0 ORBCOMM FM 22

TLE line 1: 1 25476U 98053B 25185.35140322 .00000578 00000-0 23392-3 0 9992

TLE line 2: 2 25476 45.0057 182.9222 0005545 299.7681 60.2616 14.38417405399744

Live tracking on map

Real-time ground track for satellite ORBCOMM FM 22.

In-orbit conjunctions

There are no conjunctions computed for ORBCOMM FM 22, at the moment. Check back to stay up to date, as we update our databases every day.

Go to all conjunctions

Associated space launch

ORBCOMM FM 22 was lifted into orbit during the mission ‘Pegasus XL HAPS | Orbcomm-C1 - C8’, on board a Pegasus XL HAPS space rocket.

The launch took place on Sept. 23, 1998, 5:06 a.m. from Wallops Flight Facility.

For more information about the launch, click the button.

Launch to space Pegasus XL HAPS | Orbcomm-C1 - C8
Pegasus XL HAPS | Orbcomm-C1 - C8

Agency: N/A

Status: Launch Successful

Launch date: Sept. 23, 1998, 5:06 a.m. UTC

Rocket: Pegasus XL HAPS

Launch pad: Wallops Flight Facility

Location: Air launch to orbit

...

Latest news about this satellite

There are no fresh news available about this satellite. Check back as we update our databases every day.


Newsletter sign-up

Weekly statistics, charts and insights to help you stay on top of the space industry.